Resolute,

10:03 AM CST on January 16, 2018 (GMT -0600)
Resolute

Weather History for CYRB - November, 2012

Change the Weather History Date:

Monday, November 26, 2012

  Actual Average Record
Temperature  
Mean Temperature -4 °F -  
Max Temperature 1 °F -13 °F 19 °F (2010)
Min Temperature -10 °F -26 °F -27 °F (2002)
Degree Days  
Heating Degree Days 70    
Moisture  
Dew Point -17 °F    
Average Humidity 54    
Maximum Humidity 61    
Minimum Humidity 39    
Precipitation  
Precipitation 0.00 in 0.01 in - ()
Sea Level Pressure  
Sea Level Pressure 29.87 in    
Wind  
Wind Speed 17 mph ()    
Max Wind Speed 32 mph    
Max Gust Speed 34 mph    
Visibility 9.1 miles    
Events Snow    
Averages and records for this station are not official NWS values.
T = Trace of Precipitation, MM = Missing Value Source: Averaged Metar Reports

Daily Weather History Graph

Daily Weather History Graph

Search for Another Location

Airport or City:

Trip Planner

Search our weather history database for the weather conditions in past years. The results will help you decide how hot, cold, wet, or windy it might be!

Date:

Astronomy

Dec. 31, 1969 Rise Set
Actual Time Sun does not rise Sun does not rise
Civil Twilight 11:31 AM CST 12:42 PM CST
Nautical Twilight 8:25 AM CST 3:48 PM CST
Astronomical Twilight 6:42 AM CST 5:30 PM CST
Moon No Moon Rise No Moon Set
Length of Visible Light 1h 11m
Length of Day
0h 00m
Waxing Gibbous, 97% of the Moon is Illuminated
Nov 26
Waxing Gibbous
Nov 28
Full
Dec 6
Last Quarter
Dec 13
New
Dec 19
First Quarter

Hourly Weather History & Observations

Time (CST) Temp. Windchill Dew Point Humidity Pressure Visibility Wind Dir Wind Speed Gust Speed Precip Events Conditions
12:00 AM -4 °F - -15 °F 42% 30.06 in 7 mi Calm Calm - - Snow Light Snow
12:00 AM -4.0 °F - -14.8 °F 60% 30.06 in 8.0 mi Calm Calm - N/A Snow Light Snow
1:00 AM -4.0 °F -24.5 °F -14.8 °F 60% 30.04 in 15.0 mi ENE 15.0 mph - N/A Snow Light Snow
2:00 AM -7.6 °F -31.1 °F -18.4 °F 59% 30.04 in 15.0 mi ENE 18.4 mph - N/A Snow Light Snow
3:00 AM -9.4 °F -35.2 °F -22.0 °F 54% 30.03 in 10.0 mi ENE 21.9 mph - N/A Snow Low Drifting Snow
4:00 AM -7.6 °F -32.3 °F -18.4 °F 59% 30.01 in 15.0 mi ENE 20.7 mph - N/A Snow Light Snow
4:48 AM - - - N/A% - 6.0 mi ENE 25.3 mph - N/A   Unknown
5:00 AM -7.6 °F -33.4 °F -18.4 °F 59% 29.99 in 4.0 mi ENE 23.0 mph 28.8 mph N/A Snow Light Snow
6:00 AM -8 °F - -20 °F 39% 29.97 in 6 mi ENE 27.6 mph - - Snow Light Snow
6:00 AM -7.6 °F -35.3 °F -20.2 °F 54% 29.97 in 6.0 mi ENE 27.6 mph - N/A Snow Light Snow
7:00 AM -7.6 °F -33.4 °F -20.2 °F 54% 29.94 in 6.0 mi ENE 23.0 mph 28.8 mph N/A Snow Light Snow
8:00 AM -7.6 °F -33.9 °F -20.2 °F 54% 29.91 in 8.0 mi ENE 24.2 mph 29.9 mph N/A Snow Light Snow
9:00 AM -5.8 °F -31.0 °F -16.6 °F 60% 29.89 in 15.0 mi ENE 23.0 mph - N/A Snow Light Snow
10:00 AM -5.8 °F -28.8 °F -16.6 °F 60% 29.87 in 15.0 mi ENE 18.4 mph 24.2 mph N/A Snow Light Snow
11:00 AM -5.8 °F -32.0 °F -16.6 °F 60% 29.86 in 8.0 mi ENE 25.3 mph - N/A Snow Light Snow
12:00 PM -5.8 °F -31.5 °F -16.6 °F 60% 29.84 in 12.0 mi ENE 24.2 mph - N/A Snow Light Snow
12:45 PM - - - N/A% - 15.0 mi ENE 18.4 mph - N/A   Unknown
1:00 PM -5.8 °F -28.8 °F -18.4 °F 55% 29.82 in 15.0 mi ENE 18.4 mph - N/A Snow Low Drifting Snow
2:00 PM -5.8 °F -31.0 °F -18.4 °F 55% 29.81 in 15.0 mi NE 23.0 mph - N/A Snow Low Drifting Snow
3:00 PM -2.2 °F -26.7 °F -14.8 °F 55% 29.80 in 12.0 mi ENE 24.2 mph 29.9 mph N/A Snow Low Drifting Snow
3:29 PM - - - N/A% - 0.5 mi ENE 23.0 mph 29.9 mph N/A   Ice Crystals
3:52 PM - - - N/A% - 0.4 mi ENE 25.3 mph 31.1 mph N/A   Ice Crystals
4:00 PM 1.4 °F -22.3 °F -9.4 °F 61% 29.79 in 1.8 mi ENE 25.3 mph - N/A Snow Ice Crystals
5:00 PM 1.4 °F -21.4 °F -11.2 °F 56% 29.76 in 6.0 mi NE 23.0 mph - N/A Snow Ice Crystals
6:00 PM -3 °F - -15 °F 40% 29.74 in 15 mi NE 23.0 mph - - Snow Snow
6:00 PM -2.2 °F -26.2 °F -14.8 °F 55% 29.74 in 15.0 mi NE 23.0 mph - N/A Snow Low Drifting Snow
7:00 PM -2.2 °F -28.4 °F -14.8 °F 55% 29.72 in 4.0 mi NE 28.8 mph - N/A Snow Ice Crystals
8:00 PM -2.2 °F -27.6 °F -16.6 °F 50% 29.70 in 8.0 mi NE 26.5 mph - N/A Snow Low Drifting Snow
9:00 PM -5.8 °F -32.4 °F -18.4 °F 55% 29.68 in 8.0 mi NE 26.5 mph - N/A Snow Low Drifting Snow
10:00 PM -5.8 °F -33.3 °F -20.2 °F 50% 29.67 in 6.0 mi NE 28.8 mph 34.5 mph N/A Snow Ice Crystals
11:00 PM -5.8 °F -32.9 °F -20.2 °F 50% 29.67 in 10.0 mi NE 27.6 mph - N/A Snow Low Drifting Snow
11:53 PM - - - N/A% - 4.0 mi NE 32.2 mph - N/A   Ice Crystals